Home   Weather   Odesa   Past weeks

Flag for Ukraine Past Weather in Odesa, Ukraine — Yesterday and Last 2 Weeks

Now
59 °F

Sunny.


Feels Like: 57 °F
Forecast: 45 / 62 °F
Wind: 13 mph from South

Location: Odesa Airport

Current Time: Apr 29, 2017 at 11:01:40 am

Latest Report: Apr 29, 2017 at 10:00 am


Visibility: 10 mi

Pressure: 30.01 "Hg

Humidity: 63%

Dew Point: 46 °F

Location of OdesaLocation

Past Weather in Odesa — Graph

°F

Odesa Temperature Yesterday

Maximum temperature yesterday: 59 °F (at 11:30 am)
Minimum temperature yesterday: 43 °F (at 1:00 am)
Average temperature yesterday: 51 °F

High & Low Weather Summary for the Past Weeks

 TemperatureHumidityPressure
High63 °F (Apr 15, 2:30 pm)100% (Apr 16, 8:00 pm)30.24 "Hg (Apr 16, 8:00 pm)
Low32 °F (Apr 19, 4:30 am)30% (Apr 15, 2:30 pm)29.62 "Hg (Apr 21, 5:00 am)
Average46 °F79%29.98 "Hg
* Reported Apr 14 10:00 am — Apr 29 10:00 am, Odesa, Weather by CustomWeather, © 2017

Note: Actual official high and low records may vary slightly from our data, if they occured in-between our weather recording intervals... More about our weather records

Advertising

Odesa Weather History for the Previous 24 Hours

Scroll right to see more
 ConditionsComfort  
Time TempWeatherWind HumidityBarometerVisibility
10:00 am
Sat, Apr 29
59 °FSunny.13 mph63%30.01 "Hg10 mi
9:30 am55 °FSunny.10 mph77%30.01 "Hg10 mi
9:00 am55 °FSunny.10 mph77%29.98 "Hg10 mi
8:30 am54 °FSunny.8 mph82%29.98 "Hg10 mi
8:00 am54 °FSunny.10 mph82%29.98 "Hg10 mi
7:30 am52 °FSunny.8 mph88%29.98 "Hg10 mi
7:00 am50 °FSunny.8 mph94%29.98 "Hg10 mi
6:30 am48 °FSunny.6 mph100%29.98 "Hg10 mi
6:00 am46 °FSunny.6 mph100%29.98 "Hg10 mi
5:30 am45 °FClear.3 mph100%29.98 "Hg10 mi
5:00 am45 °FClear.6 mph100%29.98 "Hg10 mi
4:30 am45 °FClear.3 mph93%29.98 "Hg10 mi
4:00 am45 °FClear.6 mph93%29.98 "Hg10 mi
3:30 am45 °FClear.6 mph93%29.98 "Hg10 mi
3:00 am46 °FClear.6 mph87%29.98 "Hg10 mi
2:30 am46 °FClear.3 mph87%29.98 "Hg10 mi
2:00 am45 °FClear.6 mph87%29.98 "Hg10 mi
1:30 am43 °FClear.3 mph93%30.01 "Hg10 mi
1:00 am45 °FClear.3 mph93%30.01 "Hg6 mi
12:30 am46 °FClear.1 mph87%30.01 "Hg10 mi
12:00 am46 °FClear.6 mph87%30.01 "Hg5 mi
11:00 pm
Fri, Apr 28
45 °FFog.3 mph100%30.01 "Hg2 mi
10:30 pm46 °FFog.8 mph93%30.01 "Hg1 mi
10:17 pm46 °FClear.8 mph87%30.01 "Hg10 mi
10:07 pm46 °FFog.8 mph93%30.01 "Hg1 mi
9:30 pm48 °FClear.6 mph82%30.01 "Hg10 mi
9:00 pm48 °FClear.8 mph87%30.01 "Hg3 mi
8:32 pm48 °FClear.8 mph82%30.01 "Hg1 mi
8:00 pm50 °FClear.8 mph76%30.01 "Hg4 mi
7:30 pm52 °FSunny.6 mph72%30.01 "Hg10 mi
7:00 pm54 °FSunny.10 mph67%30.04 "Hg10 mi
6:30 pm54 °FSunny.10 mph67%30.04 "Hg10 mi
6:00 pm55 °FSunny.13 mph63%30.04 "Hg10 mi
5:30 pm57 °FPassing clouds.15 mph63%30.04 "HgN/A
5:00 pm57 °FSunny.15 mph59%30.04 "Hg10 mi
4:30 pm57 °FSunny.15 mph59%30.04 "Hg10 mi
4:00 pm59 °FSunny.15 mph55%30.04 "Hg10 mi
3:00 pm59 °FSunny.15 mph55%30.07 "Hg10 mi
2:30 pm59 °FSunny.15 mph59%30.07 "Hg10 mi
2:00 pm59 °FSunny.15 mph59%30.07 "Hg10 mi
1:30 pm59 °FSunny.15 mph59%30.07 "Hg10 mi
1:00 pm59 °FSunny.15 mph55%30.07 "Hg10 mi
12:30 pm59 °FSunny.13 mph55%30.07 "Hg10 mi
12:00 pm59 °FSunny.13 mph59%30.09 "Hg10 mi
11:30 am59 °FPassing clouds.13 mph59%30.09 "HgN/A
Weather by CustomWeather, © 2017

See weather overviewHow to use our weather pages